Time,TemperatureF,DewpointF,PressureIn,WindDirection,WindDirectionDegrees,WindSpeedMPH,WindSpeedGustMPH,Humidity,HourlyPrecipIn,Conditions,Clouds,dailyrainin,SoftwareType,DateUTC
2013-02-28 00:02:00,18.8,15.0,30.14,NW,313,0.0,0.0,85,0.00,,,0.00,Wunderground v.1.15,2013-02-28 06:02:00,
2013-02-28 00:07:00,18.8,15.0,30.14,NW,313,0.0,0.0,85,0.00,,,0.00,Wunderground v.1.15,2013-02-28 06:07:00,
2013-02-28 00:14:00,18.6,14.8,30.14,NW,313,0.0,0.0,85,0.00,,,0.00,Wunderground v.1.15,2013-02-28 06:14:00,
2013-02-28 00:20:00,18.6,14.8,30.14,NW,313,0.0,0.0,85,0.00,,,0.00,Wunderground v.1.15,2013-02-28 06:20:00,
2013-02-28 00:25:00,18.6,14.8,30.14,NW,313,0.0,0.0,85,0.00,,,0.00,Wunderground v.1.15,2013-02-28 06:25:00,
2013-02-28 00:31:00,18.6,15.1,30.14,NW,313,0.0,0.0,86,0.00,,,0.00,Wunderground v.1.15,2013-02-28 06:31:00,
2013-02-28 00:37:00,18.6,15.1,30.14,NW,313,0.0,0.0,86,0.00,,,0.00,Wunderground v.1.15,2013-02-28 06:37:00,
2013-02-28 00:44:00,18.6,15.1,30.14,NW,313,0.0,0.0,86,0.00,,,0.00,Wunderground v.1.15,2013-02-28 06:44:00,
2013-02-28 00:50:00,18.6,14.8,30.15,NW,313,0.0,0.0,85,0.00,,,0.00,Wunderground v.1.15,2013-02-28 06:50:00,
2013-02-28 00:55:00,18.8,15.3,30.15,NW,313,0.0,0.0,86,0.00,,,0.00,Wunderground v.1.15,2013-02-28 06:55:00,
2013-02-28 01:01:00,18.8,15.3,30.15,NW,313,0.0,0.0,86,0.00,,,0.00,Wunderground v.1.15,2013-02-28 07:01:00,
2013-02-28 01:07:00,18.9,15.4,30.15,NW,313,0.0,0.0,86,0.00,,,0.00,Wunderground v.1.15,2013-02-28 07:07:00,
2013-02-28 01:14:00,18.9,15.4,30.15,NW,313,0.0,0.0,86,0.00,,,0.00,Wunderground v.1.15,2013-02-28 07:14:00,
2013-02-28 01:19:00,19.1,15.6,30.15,NW,313,0.0,0.0,86,0.00,,,0.00,Wunderground v.1.15,2013-02-28 07:19:00,
2013-02-28 01:25:00,18.9,15.1,30.15,NW,313,0.0,0.0,85,0.00,,,0.00,Wunderground v.1.15,2013-02-28 07:25:00,
2013-02-28 01:31:00,18.9,15.1,30.15,NW,313,0.0,0.0,85,0.00,,,0.00,Wunderground v.1.15,2013-02-28 07:31:00,
2013-02-28 01:37:00,19.1,15.3,30.16,NW,313,0.0,0.0,85,0.00,,,0.00,Wunderground v.1.15,2013-02-28 07:37:00,
2013-02-28 01:42:00,19.1,15.6,30.16,NW,313,0.0,0.0,86,0.00,,,0.00,Wunderground v.1.15,2013-02-28 07:42:00,
2013-02-28 01:47:00,19.2,15.7,30.16,NW,313,0.0,0.0,86,0.00,,,0.00,Wunderground v.1.15,2013-02-28 07:47:00,
2013-02-28 01:54:00,19.5,16.0,30.16,NW,313,1.0,1.0,86,0.00,,,0.00,Wunderground v.1.15,2013-02-28 07:54:00,
2013-02-28 01:59:00,20.0,16.5,30.16,NW,313,0.0,1.0,86,0.00,,,0.00,Wunderground v.1.15,2013-02-28 07:59:00,
2013-02-28 02:05:00,20.2,16.7,30.17,NW,313,0.0,0.0,86,0.00,,,0.00,Wunderground v.1.15,2013-02-28 08:05:00,
2013-02-28 02:10:00,20.5,17.0,30.17,NW,313,0.0,0.0,86,0.00,,,0.00,Wunderground v.1.15,2013-02-28 08:10:00,
2013-02-28 02:15:00,20.6,17.1,30.17,NW,313,0.0,1.0,86,0.00,,,0.00,Wunderground v.1.15,2013-02-28 08:15:00,
2013-02-28 02:20:00,21.0,17.5,30.16,NW,313,0.0,0.0,86,0.00,,,0.00,Wunderground v.1.15,2013-02-28 08:20:00,
2013-02-28 02:25:00,21.1,17.6,30.16,NW,313,0.0,0.0,86,0.00,,,0.00,Wunderground v.1.15,2013-02-28 08:25:00,
2013-02-28 02:30:00,21.6,18.1,30.16,NW,313,0.0,0.0,86,0.00,,,0.00,Wunderground v.1.15,2013-02-28 08:30:00,
2013-02-28 02:35:00,21.8,18.3,30.16,NW,313,0.0,0.0,86,0.00,,,0.00,Wunderground v.1.15,2013-02-28 08:35:00,
2013-02-28 02:40:00,21.9,18.1,30.16,NW,313,0.0,0.0,85,0.00,,,0.00,Wunderground v.1.15,2013-02-28 08:40:00,
2013-02-28 02:45:00,22.2,18.4,30.16,NW,313,0.0,0.0,85,0.00,,,0.00,Wunderground v.1.15,2013-02-28 08:45:00,
2013-02-28 02:50:00,22.4,18.6,30.16,NW,313,0.0,0.0,85,0.00,,,0.00,Wunderground v.1.15,2013-02-28 08:50:00,
2013-02-28 02:55:00,22.5,18.7,30.16,NW,313,0.0,0.0,85,0.00,,,0.00,Wunderground v.1.15,2013-02-28 08:55:00,
2013-02-28 03:00:00,22.9,18.8,30.16,NW,313,0.0,0.0,84,0.00,,,0.00,Wunderground v.1.15,2013-02-28 09:00:00,
2013-02-28 03:05:00,23.0,18.6,30.16,NW,313,0.0,1.0,83,0.00,,,0.00,Wunderground v.1.15,2013-02-28 09:05:00,
2013-02-28 03:11:00,23.2,18.8,30.16,NW,313,0.0,0.0,83,0.00,,,0.00,Wunderground v.1.15,2013-02-28 09:11:00,
2013-02-28 03:16:00,23.3,18.6,30.16,NW,313,0.0,0.0,82,0.00,,,0.00,Wunderground v.1.15,2013-02-28 09:16:00,
2013-02-28 03:21:00,23.5,18.8,30.16,NW,313,0.0,0.0,82,0.00,,,0.00,Wunderground v.1.15,2013-02-28 09:21:00,
2013-02-28 03:26:00,23.5,18.8,30.16,NW,313,0.0,0.0,82,0.00,,,0.00,Wunderground v.1.15,2013-02-28 09:26:00,
2013-02-28 03:31:00,23.5,18.8,30.16,NW,313,0.0,0.0,82,0.00,,,0.00,Wunderground v.1.15,2013-02-28 09:31:00,
2013-02-28 03:36:00,23.5,18.8,30.16,NW,313,0.0,0.0,82,0.00,,,0.00,Wunderground v.1.15,2013-02-28 09:36:00,
2013-02-28 03:41:00,23.5,18.5,30.16,NW,313,0.0,0.0,81,0.00,,,0.00,Wunderground v.1.15,2013-02-28 09:41:00,
2013-02-28 03:46:00,23.5,18.5,30.16,NW,313,0.0,1.0,81,0.00,,,0.00,Wunderground v.1.15,2013-02-28 09:46:00,
2013-02-28 03:51:00,23.5,18.5,30.16,NW,313,0.0,0.0,81,0.00,,,0.00,Wunderground v.1.15,2013-02-28 09:51:00,
2013-02-28 03:56:00,23.5,18.5,30.16,NW,313,0.0,0.0,81,0.00,,,0.00,Wunderground v.1.15,2013-02-28 09:56:00,
2013-02-28 04:01:00,23.5,18.5,30.16,NW,313,0.0,1.0,81,0.00,,,0.00,Wunderground v.1.15,2013-02-28 10:01:00,
2013-02-28 04:06:00,23.5,18.5,30.17,NNE,33,0.0,1.0,81,0.00,,,0.00,Wunderground v.1.15,2013-02-28 10:06:00,
2013-02-28 04:11:00,23.5,18.2,30.17,NNW,348,0.0,0.0,80,0.00,,,0.00,Wunderground v.1.15,2013-02-28 10:11:00,
2013-02-28 04:16:00,23.6,18.3,30.17,NNW,348,0.0,0.0,80,0.00,,,0.00,Wunderground v.1.15,2013-02-28 10:16:00,
2013-02-28 04:21:00,23.6,18.3,30.17,NNW,348,1.0,3.0,80,0.00,,,0.00,Wunderground v.1.15,2013-02-28 10:21:00,
2013-02-28 04:26:00,23.6,18.3,30.17,NNW,348,0.0,3.0,80,0.00,,,0.00,Wunderground v.1.15,2013-02-28 10:26:00,
2013-02-28 04:31:00,23.6,18.3,30.17,NNW,348,0.0,0.0,80,0.00,,,0.00,Wunderground v.1.15,2013-02-28 10:31:00,
2013-02-28 04:36:00,23.6,18.3,30.17,NNW,348,0.0,0.0,80,0.00,,,0.00,Wunderground v.1.15,2013-02-28 10:36:00,
2013-02-28 04:41:00,23.5,18.2,30.17,NNW,348,0.0,1.0,80,0.00,,,0.00,Wunderground v.1.15,2013-02-28 10:41:00,
2013-02-28 04:46:00,23.5,18.2,30.17,NNW,348,0.0,1.0,80,0.00,,,0.00,Wunderground v.1.15,2013-02-28 10:46:00,
2013-02-28 04:52:00,23.5,18.2,30.18,North,11,0.0,1.0,80,0.00,,,0.00,Wunderground v.1.15,2013-02-28 10:52:00,
2013-02-28 04:57:00,23.5,18.2,30.18,North,11,0.0,1.0,80,0.00,,,0.00,Wunderground v.1.15,2013-02-28 10:57:00,
2013-02-28 05:02:00,23.5,18.2,30.18,North,11,0.0,0.0,80,0.00,,,0.00,Wunderground v.1.15,2013-02-28 11:02:00,
2013-02-28 05:07:00,23.5,18.2,30.18,North,11,0.0,1.0,80,0.00,,,0.00,Wunderground v.1.15,2013-02-28 11:07:00,
2013-02-28 05:12:00,23.5,18.2,30.18,North,11,0.0,1.0,80,0.00,,,0.00,Wunderground v.1.15,2013-02-28 11:12:00,
2013-02-28 05:17:00,23.5,18.2,30.18,North,11,0.0,1.0,80,0.00,,,0.00,Wunderground v.1.15,2013-02-28 11:17:00,
2013-02-28 05:22:00,23.5,18.2,30.18,NW,310,0.0,0.0,80,0.00,,,0.00,Wunderground v.1.15,2013-02-28 11:22:00,
2013-02-28 05:27:00,23.5,18.2,30.18,NW,310,0.0,0.0,80,0.00,,,0.00,Wunderground v.1.15,2013-02-28 11:27:00,
2013-02-28 05:32:00,23.5,18.2,30.18,NW,309,0.0,0.0,80,0.00,,,0.00,Wunderground v.1.15,2013-02-28 11:32:00,
2013-02-28 05:37:00,23.5,18.2,30.18,NW,310,0.0,0.0,80,0.00,,,0.00,Wunderground v.1.15,2013-02-28 11:37:00,
2013-02-28 05:42:00,23.5,18.2,30.18,NW,310,0.0,0.0,80,0.00,,,0.00,Wunderground v.1.15,2013-02-28 11:42:00,
2013-02-28 05:47:00,23.3,18.0,30.18,NW,310,0.0,0.0,80,0.00,,,0.00,Wunderground v.1.15,2013-02-28 11:47:00,
2013-02-28 05:52:00,23.3,18.0,30.19,NW,310,0.0,1.0,80,0.00,,,0.00,Wunderground v.1.15,2013-02-28 11:52:00,
2013-02-28 05:57:00,23.3,18.0,30.19,NW,310,0.0,1.0,80,0.00,,,0.00,Wunderground v.1.15,2013-02-28 11:57:00,
2013-02-28 06:02:00,23.3,18.0,30.19,NW,310,0.0,0.0,80,0.00,,,0.00,Wunderground v.1.15,2013-02-28 12:02:00,
2013-02-28 06:07:00,23.3,18.0,30.19,NW,310,0.0,0.0,80,0.00,,,0.00,Wunderground v.1.15,2013-02-28 12:07:00,
2013-02-28 06:12:00,23.3,18.0,30.19,NW,309,0.0,0.0,80,0.00,,,0.00,Wunderground v.1.15,2013-02-28 12:12:00,
2013-02-28 06:17:00,23.3,18.0,30.19,NW,310,0.0,0.0,80,0.00,,,0.00,Wunderground v.1.15,2013-02-28 12:17:00,
2013-02-28 06:23:00,23.3,18.0,30.19,NW,309,0.0,0.0,80,0.00,,,0.00,Wunderground v.1.15,2013-02-28 12:23:00,
2013-02-28 06:28:00,23.3,18.0,30.19,NW,310,0.0,0.0,80,0.00,,,0.00,Wunderground v.1.15,2013-02-28 12:28:00,
2013-02-28 06:33:00,23.3,17.7,30.19,NW,310,0.0,0.0,79,0.00,,,0.00,Wunderground v.1.15,2013-02-28 12:33:00,
2013-02-28 06:38:00,23.3,17.7,30.20,NW,310,0.0,0.0,79,0.00,,,0.00,Wunderground v.1.15,2013-02-28 12:38:00,
2013-02-28 06:43:00,23.3,17.7,30.20,NW,310,0.0,1.0,79,0.00,,,0.00,Wunderground v.1.15,2013-02-28 12:43:00,
2013-02-28 06:48:00,23.5,17.6,30.20,NW,310,0.0,1.0,78,0.00,,,0.00,Wunderground v.1.15,2013-02-28 12:48:00,
2013-02-28 06:53:00,23.5,17.6,30.20,NW,309,0.0,1.0,78,0.00,,,0.00,Wunderground v.1.15,2013-02-28 12:53:00,
2013-02-28 06:58:00,23.5,17.6,30.20,NW,310,0.0,1.0,78,0.00,,,0.00,Wunderground v.1.15,2013-02-28 12:58:00,
2013-02-28 07:03:00,23.5,17.6,30.20,NW,310,0.0,0.0,78,0.00,,,0.00,Wunderground v.1.15,2013-02-28 13:03:00,
2013-02-28 07:08:00,23.5,17.3,30.20,NW,309,0.0,1.0,77,0.00,,,0.00,Wunderground v.1.15,2013-02-28 13:08:00,
2013-02-28 07:13:00,23.5,17.3,30.20,NW,310,0.0,0.0,77,0.00,,,0.00,Wunderground v.1.15,2013-02-28 13:13:00,
2013-02-28 07:18:00,23.5,17.3,30.21,NW,310,0.0,0.0,77,0.00,,,0.00,Wunderground v.1.15,2013-02-28 13:18:00,
2013-02-28 07:23:00,23.5,17.3,30.21,NW,310,0.0,0.0,77,0.00,,,0.00,Wunderground v.1.15,2013-02-28 13:23:00,
2013-02-28 07:29:00,23.5,17.3,30.21,NW,310,0.0,0.0,77,0.00,,,0.00,Wunderground v.1.15,2013-02-28 13:29:00,
2013-02-28 07:35:00,23.5,17.3,30.21,NW,310,0.0,0.0,77,0.00,,,0.00,Wunderground v.1.15,2013-02-28 13:35:00,
2013-02-28 07:40:00,23.5,17.3,30.21,NW,310,0.0,0.0,77,0.00,,,0.00,Wunderground v.1.15,2013-02-28 13:40:00,
2013-02-28 07:45:00,23.6,17.4,30.21,NW,309,0.0,0.0,77,0.00,,,0.00,Wunderground v.1.15,2013-02-28 13:45:00,
2013-02-28 07:50:00,23.6,17.4,30.21,NW,310,0.0,0.0,77,0.00,,,0.00,Wunderground v.1.15,2013-02-28 13:50:00,
2013-02-28 07:55:00,23.6,17.4,30.21,NW,310,0.0,0.0,77,0.00,,,0.00,Wunderground v.1.15,2013-02-28 13:55:00,
2013-02-28 08:00:00,23.8,17.6,30.21,NW,310,0.0,0.0,77,0.00,,,0.00,Wunderground v.1.15,2013-02-28 14:00:00,
2013-02-28 08:05:00,23.8,17.6,30.21,NW,309,0.0,0.0,77,0.00,,,0.00,Wunderground v.1.15,2013-02-28 14:05:00,
2013-02-28 08:10:00,23.9,17.4,30.21,NW,310,0.0,0.0,76,0.00,,,0.00,Wunderground v.1.15,2013-02-28 14:10:00,
2013-02-28 08:15:00,24.1,17.6,30.21,NW,309,0.0,0.0,76,0.00,,,0.00,Wunderground v.1.15,2013-02-28 14:15:00,
2013-02-28 08:20:00,24.2,17.7,30.21,NW,309,0.0,0.0,76,0.00,,,0.00,Wunderground v.1.15,2013-02-28 14:20:00,
2013-02-28 08:25:00,24.2,17.4,30.21,NW,310,0.0,1.0,75,0.00,,,0.00,Wunderground v.1.15,2013-02-28 14:25:00,
2013-02-28 08:30:00,24.4,17.9,30.21,NW,309,0.0,0.0,76,0.00,,,0.00,Wunderground v.1.15,2013-02-28 14:30:00,
2013-02-28 08:35:00,24.5,17.7,30.21,NW,309,0.0,1.0,75,0.00,,,0.00,Wunderground v.1.15,2013-02-28 14:35:00,
2013-02-28 08:40:00,24.5,17.7,30.21,NW,310,0.0,0.0,75,0.00,,,0.00,Wunderground v.1.15,2013-02-28 14:40:00,
2013-02-28 08:46:00,24.7,17.6,30.21,NW,310,0.0,1.0,74,0.00,,,0.00,Wunderground v.1.15,2013-02-28 14:46:00,
2013-02-28 08:51:00,24.8,18.0,30.21,NW,310,0.0,0.0,75,0.00,,,0.00,Wunderground v.1.15,2013-02-28 14:51:00,
2013-02-28 08:56:00,25.0,18.2,30.21,NW,310,0.0,0.0,75,0.00,,,0.00,Wunderground v.1.15,2013-02-28 14:56:00,
2013-02-28 09:01:00,25.3,18.2,30.21,NW,310,0.0,0.0,74,0.00,,,0.00,Wunderground v.1.15,2013-02-28 15:01:00,
2013-02-28 09:06:00,25.4,17.9,30.21,NW,310,0.0,0.0,73,0.00,,,0.00,Wunderground v.1.15,2013-02-28 15:06:00,
2013-02-28 09:11:00,25.4,17.6,30.21,NW,310,0.0,0.0,72,0.00,,,0.00,Wunderground v.1.15,2013-02-28 15:11:00,
2013-02-28 09:16:00,25.6,17.8,30.21,NW,310,0.0,0.0,72,0.00,,,0.00,Wunderground v.1.15,2013-02-28 15:16:00,
2013-02-28 09:21:00,25.6,17.8,30.21,NW,310,0.0,0.0,72,0.00,,,0.00,Wunderground v.1.15,2013-02-28 15:21:00,
2013-02-28 09:26:00,25.6,17.5,30.21,NW,310,2.0,2.0,71,0.00,,,0.00,Wunderground v.1.15,2013-02-28 15:26:00,
2013-02-28 09:31:00,25.3,17.5,30.21,NW,316,0.0,1.0,72,0.00,,,0.00,Wunderground v.1.15,2013-02-28 15:31:00,
2013-02-28 09:36:00,25.0,17.2,30.21,NW,308,0.0,2.0,72,0.00,,,0.00,Wunderground v.1.15,2013-02-28 15:36:00,
2013-02-28 09:41:00,24.8,17.1,30.21,NW,309,0.0,1.0,72,0.00,,,0.00,Wunderground v.1.15,2013-02-28 15:41:00,
2013-02-28 09:46:00,25.0,17.2,30.21,NW,321,0.0,1.0,72,0.00,,,0.00,Wunderground v.1.15,2013-02-28 15:46:00,
2013-02-28 09:51:00,25.0,17.2,30.22,WNW,298,2.0,2.0,72,0.00,,,0.00,Wunderground v.1.15,2013-02-28 15:51:00,
2013-02-28 09:56:00,25.0,17.2,30.22,NNW,331,1.0,3.0,72,0.00,,,0.00,Wunderground v.1.15,2013-02-28 15:56:00,
2013-02-28 10:01:00,25.0,16.9,30.22,NW,306,0.0,2.0,71,0.00,,,0.00,Wunderground v.1.15,2013-02-28 16:01:00,
2013-02-28 10:06:00,25.0,16.9,30.22,NNW,329,0.0,2.0,71,0.00,,,0.00,Wunderground v.1.15,2013-02-28 16:06:00,
2013-02-28 10:12:00,25.1,16.7,30.22,NNW,329,0.0,1.0,70,0.00,,,0.00,Wunderground v.1.15,2013-02-28 16:12:00,
2013-02-28 10:17:00,25.4,17.3,30.22,NNW,329,0.0,2.0,71,0.00,,,0.00,Wunderground v.1.15,2013-02-28 16:17:00,
2013-02-28 10:22:00,25.7,17.3,30.22,NNW,339,0.0,1.0,70,0.00,,,0.00,Wunderground v.1.15,2013-02-28 16:22:00,
2013-02-28 10:27:00,26.1,17.3,30.22,NNW,337,0.0,1.0,69,0.00,,,0.00,Wunderground v.1.15,2013-02-28 16:27:00,
2013-02-28 10:32:00,26.4,16.9,30.22,NNW,341,1.0,1.0,67,0.00,,,0.00,Wunderground v.1.15,2013-02-28 16:32:00,
2013-02-28 10:37:00,26.7,16.9,30.22,NW,315,1.0,3.0,66,0.00,,,0.00,Wunderground v.1.15,2013-02-28 16:37:00,
2013-02-28 10:42:00,26.9,17.0,30.22,ENE,76,0.0,2.0,66,0.00,,,0.00,Wunderground v.1.15,2013-02-28 16:42:00,
2013-02-28 10:47:00,27.5,17.3,30.22,ENE,76,0.0,2.0,65,0.00,,,0.00,Wunderground v.1.15,2013-02-28 16:47:00,
2013-02-28 10:53:00,28.1,17.5,30.22,East,86,0.0,0.0,64,0.00,,,0.00,Wunderground v.1.15,2013-02-28 16:53:00,
2013-02-28 10:58:00,28.8,17.4,30.22,East,91,0.0,0.0,62,0.00,,,0.00,Wunderground v.1.15,2013-02-28 16:58:00,
2013-02-28 11:03:00,29.1,17.7,30.22,East,99,1.0,2.0,62,0.00,,,0.00,Wunderground v.1.15,2013-02-28 17:03:00,
2013-02-28 11:08:00,29.3,17.9,30.22,East,99,0.0,2.0,62,0.00,,,0.00,Wunderground v.1.15,2013-02-28 17:08:00,
2013-02-28 11:13:00,29.3,17.1,30.22,East,99,0.0,1.0,60,0.00,,,0.00,Wunderground v.1.15,2013-02-28 17:13:00,
2013-02-28 11:18:00,29.4,17.6,30.22,East,99,0.0,2.0,61,0.00,,,0.00,Wunderground v.1.15,2013-02-28 17:18:00,
2013-02-28 11:23:00,29.7,17.5,30.22,East,101,1.0,1.0,60,0.00,,,0.00,Wunderground v.1.15,2013-02-28 17:23:00,
2013-02-28 11:29:00,29.7,17.1,30.22,SE,124,2.0,2.0,59,0.00,,,0.00,Wunderground v.1.15,2013-02-28 17:29:00,
2013-02-28 11:34:00,29.5,17.3,30.22,SE,124,0.0,1.0,60,0.00,,,0.00,Wunderground v.1.15,2013-02-28 17:34:00,
2013-02-28 11:39:00,29.3,16.3,30.22,SE,124,0.0,2.0,58,0.00,,,0.00,Wunderground v.1.15,2013-02-28 17:39:00,
2013-02-28 11:44:00,29.5,16.5,30.22,ESE,123,0.0,2.0,58,0.00,,,0.00,Wunderground v.1.15,2013-02-28 17:44:00,
2013-02-28 11:49:00,29.4,16.8,30.22,NNW,327,0.0,3.0,59,0.00,,,0.00,Wunderground v.1.15,2013-02-28 17:49:00,
2013-02-28 11:55:00,29.1,16.5,30.22,NW,326,1.0,1.0,59,0.00,,,0.00,Wunderground v.1.15,2013-02-28 17:55:00,
2013-02-28 12:00:00,29.0,16.8,30.22,WNW,284,1.0,1.0,60,0.00,,,0.00,Wunderground v.1.15,2013-02-28 18:00:00,
2013-02-28 12:05:00,28.7,16.6,30.22,NW,306,1.0,3.0,60,0.00,,,0.00,Wunderground v.1.15,2013-02-28 18:05:00,
2013-02-28 12:10:00,28.4,17.0,30.22,NW,306,1.0,2.0,62,0.00,,,0.00,Wunderground v.1.15,2013-02-28 18:10:00,
2013-02-28 12:15:00,28.1,17.5,30.22,WNW,287,2.0,3.0,64,0.00,,,0.00,Wunderground v.1.15,2013-02-28 18:15:00,
2013-02-28 12:20:00,28.1,17.1,30.22,NW,314,2.0,2.0,63,0.00,,,0.00,Wunderground v.1.15,2013-02-28 18:20:00,
2013-02-28 12:25:00,27.8,16.5,30.22,NW,313,1.0,5.0,62,0.00,,,0.00,Wunderground v.1.15,2013-02-28 18:25:00,
2013-02-28 12:30:00,27.3,16.0,30.22,NW,319,2.0,2.0,62,0.00,,,0.00,Wunderground v.1.15,2013-02-28 18:30:00,
2013-02-28 12:35:00,27.2,16.6,30.21,NW,319,1.0,4.0,64,0.00,,,0.00,Wunderground v.1.15,2013-02-28 18:35:00,
2013-02-28 12:40:00,27.2,17.7,30.21,NW,319,1.0,1.0,67,0.00,,,0.00,Wunderground v.1.15,2013-02-28 18:40:00,
2013-02-28 12:45:00,27.2,18.0,30.21,NW,320,3.0,4.0,68,0.00,,,0.00,Wunderground v.1.15,2013-02-28 18:45:00,
2013-02-28 12:50:00,26.6,17.8,30.21,NW,312,3.0,5.0,69,0.00,,,0.00,Wunderground v.1.15,2013-02-28 18:50:00,
2013-02-28 12:56:00,26.0,17.6,30.21,NW,311,4.0,5.0,70,0.00,,,0.00,Wunderground v.1.15,2013-02-28 18:56:00,
2013-02-28 13:01:00,25.8,17.4,30.21,NW,316,2.0,3.0,70,0.00,,,0.00,Wunderground v.1.15,2013-02-28 19:01:00,
2013-02-28 13:06:00,26.0,17.6,30.21,NW,316,2.0,3.0,70,0.00,,,0.00,Wunderground v.1.15,2013-02-28 19:06:00,
2013-02-28 13:11:00,26.0,17.6,30.21,NW,318,0.0,3.0,70,0.00,,,0.00,Wunderground v.1.15,2013-02-28 19:11:00,
2013-02-28 13:16:00,26.0,17.6,30.21,NW,319,0.0,3.0,70,0.00,,,0.00,Wunderground v.1.15,2013-02-28 19:16:00,
2013-02-28 13:21:00,26.1,17.0,30.21,NW,304,1.0,4.0,68,0.00,,,0.00,Wunderground v.1.15,2013-02-28 19:21:00,
2013-02-28 13:26:00,26.1,17.3,30.21,NW,304,0.0,4.0,69,0.00,,,0.00,Wunderground v.1.15,2013-02-28 19:26:00,
2013-02-28 13:31:00,26.1,17.3,30.21,WNW,296,1.0,2.0,69,0.00,,,0.00,Wunderground v.1.15,2013-02-28 19:31:00,
2013-02-28 13:36:00,26.1,17.0,30.21,WNW,296,1.0,3.0,68,0.00,,,0.00,Wunderground v.1.15,2013-02-28 19:36:00,
2013-02-28 13:41:00,26.1,17.0,30.21,WNW,299,1.0,3.0,68,0.00,,,0.00,Wunderground v.1.15,2013-02-28 19:41:00,
2013-02-28 13:46:00,26.4,17.6,30.21,WNW,293,3.0,3.0,69,0.00,,,0.00,Wunderground v.1.15,2013-02-28 19:46:00,
2013-02-28 13:51:00,26.6,17.1,30.20,WNW,297,2.0,3.0,67,0.00,,,0.00,Wunderground v.1.15,2013-02-28 19:51:00,
2013-02-28 13:56:00,26.7,17.6,30.20,WNW,299,2.0,3.0,68,0.00,,,0.00,Wunderground v.1.15,2013-02-28 19:56:00,
2013-02-28 14:01:00,26.7,17.6,30.20,WNW,301,2.0,3.0,68,0.00,,,0.00,Wunderground v.1.15,2013-02-28 20:01:00,
2013-02-28 14:07:00,26.7,17.2,30.20,WNW,301,0.0,4.0,67,0.00,,,0.00,Wunderground v.1.15,2013-02-28 20:07:00,
2013-02-28 14:12:00,26.6,17.1,30.20,NW,312,1.0,3.0,67,0.00,,,0.00,Wunderground v.1.15,2013-02-28 20:12:00,
2013-02-28 14:17:00,26.4,17.3,30.20,NW,312,2.0,4.0,68,0.00,,,0.00,Wunderground v.1.15,2013-02-28 20:17:00,
2013-02-28 14:22:00,26.4,17.6,30.20,West,272,3.0,3.0,69,0.00,,,0.00,Wunderground v.1.15,2013-02-28 20:22:00,
2013-02-28 14:27:00,26.1,17.0,30.20,WNW,300,2.0,3.0,68,0.00,,,0.00,Wunderground v.1.15,2013-02-28 20:27:00,
2013-02-28 14:32:00,26.0,17.2,30.20,WNW,300,0.0,3.0,69,0.00,,,0.00,Wunderground v.1.15,2013-02-28 20:32:00,
2013-02-28 14:37:00,26.0,17.2,30.20,WNW,286,2.0,3.0,69,0.00,,,0.00,Wunderground v.1.15,2013-02-28 20:37:00,
2013-02-28 14:42:00,25.8,16.7,30.20,WNW,290,2.0,3.0,68,0.00,,,0.00,Wunderground v.1.15,2013-02-28 20:42:00,
2013-02-28 14:47:00,26.0,17.2,30.20,WNW,290,1.0,3.0,69,0.00,,,0.00,Wunderground v.1.15,2013-02-28 20:47:00,
2013-02-28 14:52:00,26.0,17.2,30.20,WNW,290,1.0,3.0,69,0.00,,,0.00,Wunderground v.1.15,2013-02-28 20:52:00,
2013-02-28 14:57:00,26.0,17.6,30.20,West,266,2.0,4.0,70,0.00,,,0.00,Wunderground v.1.15,2013-02-28 20:57:00,
2013-02-28 15:02:00,25.8,17.7,30.20,WNW,302,2.0,2.0,71,0.00,,,0.00,Wunderground v.1.15,2013-02-28 21:02:00,
2013-02-28 15:07:00,25.7,17.6,30.20,WNW,288,3.0,3.0,71,0.00,,,0.00,Wunderground v.1.15,2013-02-28 21:07:00,
2013-02-28 15:12:00,25.4,17.6,30.20,WNW,298,2.0,2.0,72,0.00,,,0.00,Wunderground v.1.15,2013-02-28 21:12:00,
2013-02-28 15:17:00,25.3,17.2,30.20,NW,309,3.0,3.0,71,0.00,,,0.00,Wunderground v.1.15,2013-02-28 21:17:00,
2013-02-28 15:22:00,25.1,17.3,30.20,NW,309,0.0,2.0,72,0.00,,,0.00,Wunderground v.1.15,2013-02-28 21:22:00,
2013-02-28 15:27:00,24.8,17.1,30.20,NW,309,2.0,3.0,72,0.00,,,0.00,Wunderground v.1.15,2013-02-28 21:27:00,
2013-02-28 15:32:00,24.7,17.0,30.20,NW,309,2.0,3.0,72,0.00,,,0.00,Wunderground v.1.15,2013-02-28 21:32:00,
2013-02-28 15:37:00,24.5,17.1,30.21,NW,309,0.0,3.0,73,0.00,,,0.00,Wunderground v.1.15,2013-02-28 21:37:00,
2013-02-28 15:43:00,24.5,16.8,30.21,NW,309,1.0,3.0,72,0.00,,,0.00,Wunderground v.1.15,2013-02-28 21:43:00,
2013-02-28 15:48:00,24.7,17.0,30.21,NW,309,2.0,3.0,72,0.00,,,0.00,Wunderground v.1.15,2013-02-28 21:48:00,
2013-02-28 15:53:00,24.7,17.0,30.21,NW,309,0.0,2.0,72,0.00,,,0.00,Wunderground v.1.15,2013-02-28 21:53:00,
2013-02-28 15:58:00,24.5,16.4,30.21,NW,309,1.0,3.0,71,0.00,,,0.00,Wunderground v.1.15,2013-02-28 21:58:00,
2013-02-28 16:03:00,24.5,16.8,30.21,NW,309,1.0,2.0,72,0.00,,,0.00,Wunderground v.1.15,2013-02-28 22:03:00,
2013-02-28 16:09:00,24.4,16.7,30.21,WNW,297,1.0,2.0,72,0.00,,,0.00,Wunderground v.1.15,2013-02-28 22:09:00,
2013-02-28 16:14:00,24.2,16.1,30.21,WNW,298,1.0,2.0,71,0.00,,,0.00,Wunderground v.1.15,2013-02-28 22:14:00,
2013-02-28 16:19:00,24.2,16.1,30.22,WNW,302,1.0,2.0,71,0.00,,,0.00,Wunderground v.1.15,2013-02-28 22:19:00,
2013-02-28 16:24:00,23.9,15.9,30.22,WNW,302,1.0,2.0,71,0.00,,,0.00,Wunderground v.1.15,2013-02-28 22:24:00,
2013-02-28 16:29:00,23.8,16.1,30.22,WNW,302,0.0,2.0,72,0.00,,,0.00,Wunderground v.1.15,2013-02-28 22:29:00,
2013-02-28 16:34:00,23.5,15.8,30.22,WNW,302,1.0,2.0,72,0.00,,,0.00,Wunderground v.1.15,2013-02-28 22:34:00,
2013-02-28 16:40:00,23.3,15.6,30.22,WNW,302,1.0,1.0,72,0.00,,,0.00,Wunderground v.1.15,2013-02-28 22:40:00,
2013-02-28 16:45:00,23.2,16.1,30.22,WNW,302,0.0,1.0,74,0.00,,,0.00,Wunderground v.1.15,2013-02-28 22:45:00,
2013-02-28 16:50:00,23.0,15.3,30.22,WNW,302,0.0,1.0,72,0.00,,,0.00,Wunderground v.1.15,2013-02-28 22:50:00,
2013-02-28 16:55:00,22.9,15.5,30.22,WNW,302,2.0,3.0,73,0.00,,,0.00,Wunderground v.1.15,2013-02-28 22:55:00,
2013-02-28 17:00:00,22.7,15.3,30.22,WNW,302,0.0,1.0,73,0.00,,,0.00,Wunderground v.1.15,2013-02-28 23:00:00,
2013-02-28 17:05:00,22.4,15.4,30.22,WNW,302,0.0,1.0,74,0.00,,,0.00,Wunderground v.1.15,2013-02-28 23:05:00,
2013-02-28 17:10:00,22.2,15.2,30.22,WNW,302,0.0,0.0,74,0.00,,,0.00,Wunderground v.1.15,2013-02-28 23:10:00,
2013-02-28 17:15:00,22.1,15.1,30.22,WNW,302,0.0,1.0,74,0.00,,,0.00,Wunderground v.1.15,2013-02-28 23:15:00,
2013-02-28 17:20:00,21.9,14.9,30.23,WNW,302,0.0,0.0,74,0.00,,,0.00,Wunderground v.1.15,2013-02-28 23:20:00,
2013-02-28 17:25:00,21.9,14.9,30.23,WNW,302,0.0,0.0,74,0.00,,,0.00,Wunderground v.1.15,2013-02-28 23:25:00,
2013-02-28 17:30:00,21.8,14.8,30.23,WNW,302,0.0,0.0,74,0.00,,,0.00,Wunderground v.1.15,2013-02-28 23:30:00,
2013-02-28 17:35:00,21.8,14.8,30.23,WNW,302,0.0,1.0,74,0.00,,,0.00,Wunderground v.1.15,2013-02-28 23:35:00,
2013-02-28 17:41:00,21.6,14.6,30.23,WNW,302,0.0,0.0,74,0.00,,,0.00,Wunderground v.1.15,2013-02-28 23:41:00,
2013-02-28 17:46:00,21.4,14.4,30.23,WNW,302,1.0,2.0,74,0.00,,,0.00,Wunderground v.1.15,2013-02-28 23:46:00,
2013-02-28 17:51:00,20.8,14.1,30.24,WNW,302,0.0,0.0,75,0.00,,,0.00,Wunderground v.1.15,2013-02-28 23:51:00,
2013-02-28 17:56:00,20.5,14.1,30.24,WNW,302,0.0,0.0,76,0.00,,,0.00,Wunderground v.1.15,2013-02-28 23:56:00,
2013-02-28 18:01:00,20.2,13.8,30.24,WNW,302,0.0,0.0,76,0.00,,,0.00,Wunderground v.1.15,2013-03-01 00:01:00,
2013-02-28 18:06:00,20.0,13.9,30.25,WNW,302,0.0,1.0,77,0.00,,,0.00,Wunderground v.1.15,2013-03-01 00:06:00,
2013-02-28 18:11:00,19.7,13.7,30.25,WNW,302,0.0,0.0,77,0.00,,,0.00,Wunderground v.1.15,2013-03-01 00:11:00,
2013-02-28 18:16:00,19.7,14.0,30.25,WNW,302,0.0,0.0,78,0.00,,,0.00,Wunderground v.1.15,2013-03-01 00:16:00,
2013-02-28 18:21:00,19.5,13.8,30.24,WNW,302,0.0,0.0,78,0.00,,,0.00,Wunderground v.1.15,2013-03-01 00:21:00,
2013-02-28 18:26:00,19.5,13.8,30.24,WNW,302,0.0,1.0,78,0.00,,,0.00,Wunderground v.1.15,2013-03-01 00:26:00,
2013-02-28 18:31:00,19.4,13.7,30.24,WNW,302,0.0,0.0,78,0.00,,,0.00,Wunderground v.1.15,2013-03-01 00:31:00,
2013-02-28 18:36:00,19.4,13.7,30.25,WNW,302,0.0,0.0,78,0.00,,,0.00,Wunderground v.1.15,2013-03-01 00:36:00,
2013-02-28 18:41:00,19.4,13.7,30.25,WNW,302,0.0,0.0,78,0.00,,,0.00,Wunderground v.1.15,2013-03-01 00:41:00,
2013-02-28 18:46:00,19.2,13.8,30.25,WNW,302,0.0,0.0,79,0.00,,,0.00,Wunderground v.1.15,2013-03-01 00:46:00,
2013-02-28 18:51:00,19.2,13.8,30.25,WNW,302,0.0,0.0,79,0.00,,,0.00,Wunderground v.1.15,2013-03-01 00:51:00,
2013-02-28 18:57:00,19.2,13.8,30.25,WNW,302,0.0,0.0,79,0.00,,,0.00,Wunderground v.1.15,2013-03-01 00:57:00,
2013-02-28 19:02:00,19.2,13.8,30.25,WNW,302,0.0,0.0,79,0.00,,,0.00,Wunderground v.1.15,2013-03-01 01:02:00,
2013-02-28 19:07:00,19.2,13.8,30.25,WNW,302,0.0,0.0,79,0.00,,,0.00,Wunderground v.1.15,2013-03-01 01:07:00,
2013-02-28 19:12:00,19.1,13.7,30.25,WNW,302,0.0,0.0,79,0.00,,,0.00,Wunderground v.1.15,2013-03-01 01:12:00,
2013-02-28 19:17:00,19.1,13.7,30.25,WNW,302,0.0,0.0,79,0.00,,,0.00,Wunderground v.1.15,2013-03-01 01:17:00,
2013-02-28 19:22:00,18.9,13.5,30.26,WNW,302,0.0,0.0,79,0.00,,,0.00,Wunderground v.1.15,2013-03-01 01:22:00,
2013-02-28 19:27:00,18.8,13.4,30.26,WNW,302,0.0,0.0,79,0.00,,,0.00,Wunderground v.1.15,2013-03-01 01:27:00,
2013-02-28 19:32:00,18.6,13.2,30.26,WNW,302,0.0,0.0,79,0.00,,,0.00,Wunderground v.1.15,2013-03-01 01:32:00,
2013-02-28 19:37:00,18.4,13.0,30.26,WNW,302,0.0,0.0,79,0.00,,,0.00,Wunderground v.1.15,2013-03-01 01:37:00,
2013-02-28 19:42:00,18.3,13.2,30.26,WNW,302,0.0,0.0,80,0.00,,,0.00,Wunderground v.1.15,2013-03-01 01:42:00,
2013-02-28 19:47:00,18.1,12.7,30.26,WNW,302,0.0,0.0,79,0.00,,,0.00,Wunderground v.1.15,2013-03-01 01:47:00,
2013-02-28 19:52:00,18.0,12.6,30.26,WNW,302,0.0,0.0,79,0.00,,,0.00,Wunderground v.1.15,2013-03-01 01:52:00,
2013-02-28 19:57:00,17.8,12.7,30.26,WNW,302,0.0,0.0,80,0.00,,,0.00,Wunderground v.1.15,2013-03-01 01:57:00,
2013-02-28 20:02:00,17.7,12.6,30.26,WNW,302,0.0,0.0,80,0.00,,,0.00,Wunderground v.1.15,2013-03-01 02:02:00,
2013-02-28 20:07:00,17.7,12.6,30.27,WNW,302,0.0,0.0,80,0.00,,,0.00,Wunderground v.1.15,2013-03-01 02:07:00,
2013-02-28 20:13:00,17.5,12.7,30.27,WNW,302,0.0,0.0,81,0.00,,,0.00,Wunderground v.1.15,2013-03-01 02:13:00,
2013-02-28 20:18:00,17.5,12.7,30.27,WNW,302,0.0,0.0,81,0.00,,,0.00,Wunderground v.1.15,2013-03-01 02:18:00,
2013-02-28 20:23:00,17.7,12.9,30.27,WNW,302,0.0,0.0,81,0.00,,,0.00,Wunderground v.1.15,2013-03-01 02:23:00,
2013-02-28 20:28:00,17.5,12.7,30.27,WNW,302,0.0,0.0,81,0.00,,,0.00,Wunderground v.1.15,2013-03-01 02:28:00,
2013-02-28 20:33:00,17.5,12.7,30.27,WNW,302,0.0,0.0,81,0.00,,,0.00,Wunderground v.1.15,2013-03-01 02:33:00,
2013-02-28 20:38:00,17.5,12.7,30.27,WNW,302,0.0,0.0,81,0.00,,,0.00,Wunderground v.1.15,2013-03-01 02:38:00,
2013-02-28 20:43:00,17.5,12.7,30.27,WNW,302,0.0,0.0,81,0.00,,,0.00,Wunderground v.1.15,2013-03-01 02:43:00,
2013-02-28 20:48:00,17.5,12.7,30.27,WNW,302,0.0,0.0,81,0.00,,,0.00,Wunderground v.1.15,2013-03-01 02:48:00,
2013-02-28 20:53:00,17.3,12.2,30.27,WNW,302,0.0,0.0,80,0.00,,,0.00,Wunderground v.1.15,2013-03-01 02:53:00,
2013-02-28 20:58:00,17.3,12.5,30.27,WNW,302,0.0,0.0,81,0.00,,,0.00,Wunderground v.1.15,2013-03-01 02:58:00,
2013-02-28 21:03:00,17.3,12.5,30.27,WNW,302,0.0,0.0,81,0.00,,,0.00,Wunderground v.1.15,2013-03-01 03:03:00,
2013-02-28 21:08:00,17.2,12.1,30.27,WNW,302,0.0,0.0,80,0.00,,,0.00,Wunderground v.1.15,2013-03-01 03:08:00,
2013-02-28 21:13:00,17.0,11.9,30.27,WNW,302,0.0,0.0,80,0.00,,,0.00,Wunderground v.1.15,2013-03-01 03:13:00,
2013-02-28 21:18:00,16.9,12.1,30.27,WNW,302,0.0,0.0,81,0.00,,,0.00,Wunderground v.1.15,2013-03-01 03:18:00,
2013-02-28 21:23:00,17.0,12.2,30.27,WNW,302,0.0,0.0,81,0.00,,,0.00,Wunderground v.1.15,2013-03-01 03:23:00,
2013-02-28 21:28:00,16.9,12.1,30.27,WNW,302,0.0,0.0,81,0.00,,,0.00,Wunderground v.1.15,2013-03-01 03:28:00,
2013-02-28 21:34:00,16.7,11.9,30.27,WNW,302,0.0,0.0,81,0.00,,,0.00,Wunderground v.1.15,2013-03-01 03:34:00,
2013-02-28 21:39:00,16.7,11.9,30.27,WNW,302,0.0,0.0,81,0.00,,,0.00,Wunderground v.1.15,2013-03-01 03:39:00,
2013-02-28 21:44:00,16.5,11.7,30.27,WNW,302,0.0,0.0,81,0.00,,,0.00,Wunderground v.1.15,2013-03-01 03:44:00,
2013-02-28 21:50:00,16.4,11.6,30.27,WNW,302,0.0,0.0,81,0.00,,,0.00,Wunderground v.1.15,2013-03-01 03:50:00,
2013-02-28 21:55:00,16.4,11.6,30.27,WNW,302,0.0,0.0,81,0.00,,,0.00,Wunderground v.1.15,2013-03-01 03:55:00,
2013-02-28 22:00:00,16.2,11.4,30.27,WNW,302,0.0,0.0,81,0.00,,,0.00,Wunderground v.1.15,2013-03-01 04:00:00,
2013-02-28 22:05:00,16.1,11.3,30.28,WNW,302,0.0,0.0,81,0.00,,,0.00,Wunderground v.1.15,2013-03-01 04:05:00,
2013-02-28 22:10:00,16.1,11.3,30.28,WNW,302,0.0,0.0,81,0.00,,,0.00,Wunderground v.1.15,2013-03-01 04:10:00,
2013-02-28 22:15:00,15.7,10.9,30.28,WNW,302,0.0,0.0,81,0.00,,,0.00,Wunderground v.1.15,2013-03-01 04:15:00,
2013-02-28 22:20:00,15.4,10.6,30.27,WNW,302,0.0,0.0,81,0.00,,,0.00,Wunderground v.1.15,2013-03-01 04:20:00,
2013-02-28 22:25:00,15.2,10.7,30.27,WNW,302,0.0,0.0,82,0.00,,,0.00,Wunderground v.1.15,2013-03-01 04:25:00,
2013-02-28 22:30:00,14.9,10.4,30.27,WNW,302,0.0,0.0,82,0.00,,,0.00,Wunderground v.1.15,2013-03-01 04:30:00,
2013-02-28 22:36:00,14.6,10.1,30.27,WNW,302,0.0,0.0,82,0.00,,,0.00,Wunderground v.1.15,2013-03-01 04:36:00,
2013-02-28 22:41:00,14.6,10.1,30.27,WNW,302,0.0,0.0,82,0.00,,,0.00,Wunderground v.1.15,2013-03-01 04:41:00,
2013-02-28 22:46:00,14.6,10.4,30.27,WNW,302,0.0,0.0,83,0.00,,,0.00,Wunderground v.1.15,2013-03-01 04:46:00,
2013-02-28 22:51:00,14.6,10.4,30.27,WNW,302,0.0,0.0,83,0.00,,,0.00,Wunderground v.1.15,2013-03-01 04:51:00,
2013-02-28 22:56:00,14.6,10.1,30.27,WNW,302,0.0,0.0,82,0.00,,,0.00,Wunderground v.1.15,2013-03-01 04:56:00,
2013-02-28 23:00:00,14.6,10.1,30.27,WNW,302,0.0,0.0,82,0.00,,,0.00,Wunderground v.1.15,2013-03-01 05:00:00,
2013-02-28 23:06:00,14.4,9.9,30.28,WNW,302,0.0,0.0,82,0.00,,,0.00,Wunderground v.1.15,2013-03-01 05:06:00,
2013-02-28 23:07:00,14.4,9.9,30.28,WNW,302,0.0,0.0,82,0.00,,,0.00,Wunderground v.1.15,2013-03-01 05:07:00,
2013-02-28 23:13:00,14.4,9.9,30.28,WNW,302,0.0,0.0,82,0.00,,,0.00,Wunderground v.1.15,2013-03-01 05:13:00,
2013-02-28 23:18:00,14.4,9.9,30.28,WNW,302,0.0,0.0,82,0.00,,,0.00,Wunderground v.1.15,2013-03-01 05:18:00,
2013-02-28 23:23:00,14.6,10.1,30.28,WNW,302,0.0,0.0,82,0.00,,,0.00,Wunderground v.1.15,2013-03-01 05:23:00,
2013-02-28 23:28:00,14.6,10.1,30.28,WNW,302,0.0,0.0,82,0.00,,,0.00,Wunderground v.1.15,2013-03-01 05:28:00,
2013-02-28 23:33:00,14.4,9.9,30.28,WNW,302,0.0,0.0,82,0.00,,,0.00,Wunderground v.1.15,2013-03-01 05:33:00,
2013-02-28 23:39:00,14.3,9.8,30.28,WNW,302,0.0,0.0,82,0.00,,,0.00,Wunderground v.1.15,2013-03-01 05:39:00,
2013-02-28 23:44:00,14.1,9.6,30.28,WNW,302,0.0,0.0,82,0.00,,,0.00,Wunderground v.1.15,2013-03-01 05:44:00,
2013-02-28 23:49:00,14.1,9.6,30.28,WNW,302,0.0,0.0,82,0.00,,,0.00,Wunderground v.1.15,2013-03-01 05:49:00,
2013-02-28 23:54:00,14.1,9.6,30.28,WNW,302,0.0,0.0,82,0.00,,,0.00,Wunderground v.1.15,2013-03-01 05:54:00,